Dewpoint
46 46 47 47 47 46 45 40 33 43 48 36 35 33 37 38 36 36 36 38 36 34 30 22 21 20 17 19 19 11 18 19 11 8 12 9 10 13 18 15 12 19 17 8
45 46 46 46 46 46 40 35 32 42 42 31 30 34 35 35 35 35 37 35 38 38 36 31 26 23 25 19 18 17 17 16 12 7 11 13 10 15 18 22 22 19 14 10
44 44 45 45 46 46 41 33 30 34 35 37 34 32 33 34 35 34 37 40 38 39 32 35 29 24 26 27 23 35 25 18 12 8 11 15 10 11 20 16 17 10 16 17
43 43 44 44 45 46 43 36 31 32 29 31 32 34 32 32 34 33 33 32 38 37 34 31 30 27 24 22 28 23 19 15 14 14 12 11 12 11 20 17 12 14 11 17
42 43 43 45 45 46 41 32 32 35 29 29 32 32 30 30 30 31 34 33 31 37 33 35 32 29 25 21 21 21 21 18 16 13 16 15 12 12 12 15 17 17 17 16
41 42 43 44 45 44 38 38 39 36 30 29 31 30 29 28 32 34 33 33 36 36 35 37 38 39 38 28 24 22 20 20 16 10 15 13 9 15 13 13 17 19 17 19
41 42 43 44 44 44 40 40 36 33 27 30 29 29 30 29 30 30 35 34 34 36 34 30 31 32 33 32 25 26 22 22 21 19 16 9 15 17 14 16 22 19 20 23
40 41 42 43 44 44 40 42 39 35 27 31 29 29 30 30 32 33 35 39 38 35 35 32 29 28 26 24 23 21 22 23 22 19 16 15 14 18 17 17 20 28 23 24
40 41 42 43 44 44 40 41 42 39 32 28 35 31 30 31 32 33 35 41 42 39 33 31 27 23 25 22 22 24 25 25 24 22 14 11 17 23 24 23 18 28 26 26
40 40 42 42 42 43 43 41 41 39 33 32 35 34 32 31 32 30 36 37 37 39 32 29 26 24 24 20 21 20 23 24 17 21 16 19 23 23 23 16 19 29 28 28
39 40 41 42 42 42 43 40 43 39 35 35 37 38 37 37 34 32 36 35 34 33 30 28 26 26 24 21 22 21 19 20 16 18 12 13 25 23 20 26 30 30 29 28
39 39 40 41 41 40 43 38 43 44 38 35 41 40 40 39 39 38 36 32 32 33 28 28 27 24 23 21 19 23 17 21 19 20 20 28 32 28 31 31 29 29 29 29
39 40 40 41 41 40 41 39 42 41 37 35 36 35 40 43 44 45 37 35 35 31 33 30 29 22 23 19 21 21 25 26 22 25 28 30 32 32 32 30 30 30 29 24
40 41 41 41 41 41 40 40 41 38 37 31 32 41 38 43 45 44 41 36 36 35 33 29 29 26 24 23 24 22 25 27 26 27 31 31 31 31 31 29 27 25 24 22
40 40 41 41 41 41 41 42 41 43 36 32 33 38 40 42 45 41 36 36 33 29 29 30 27 23 21 23 26 24 28 26 23 23 30 28 29 31 30 26 24 21 19 20
42 42 42 41 41 42 41 36 41 44 42 34 30 37 37 41 42 39 36 35 34 31 29 27 25 26 21 20 18 22 28 30 29 28 32 32 32 31 28 26 20 19 19 20
43 42 41 41 42 41 37 34 37 44 43 34 30 31 35 40 35 34 32 32 31 29 27 24 20 21 25 22 17 28 32 33 32 32 31 30 30 28 23 21 20 20 18 19
41 41 42 42 43 42 37 42 45 43 39 37 29 29 32 36 29 27 32 28 30 30 26 24 21 25 24 20 26 32 32 31 31 31 31 30 27 21 19 18 17 15 15 16
41 42 43 41 40 37 37 45 45 43 38 30 29 26 26 31 31 31 31 29 27 29 25 23 24 23 19 24 31 31 31 30 29 29 26 24 21 19 17 17 16 15 14 14
43 41 35 32 39 44 42 39 35 34 34 32 28 29 26 29 29 29 28 27 25 21 24 26 24 23 26 29 31 31 30 28 27 25 24 23 20 19 18 17 17 16 14 14
38 33 33 41 43 38 34 30 30 31 27 29 28 28 27 32 28 28 28 21 23 17 23 23 23 22 26 29 29 30 28 27 27 27 25 23 21 19 17 17 17 17 16 14
37 39 41 39 36 32 28 23 25 26 26 28 27 27 31 31 32 28 27 23 20 20 25 19 21 25 28 28 27 27 27 26 24 23 21 20 19 18 18 18 17 16 15 13
39 34 31 30 30 17 14 15 21 22 27 28 29 28 30 31 29 26 21 17 18 25 17 20 23 26 26 25 24 23 23 23 21 20 20 19 19 19 18 17 17 15 13 10
27 19 15 16 17 20 21 24 26 28 30 28 29 28 28 27 26 23 15 22 24 14 15 19 23 26 24 24 23 22 21 22 21 20 19 19 19 18 15 14 12 11 10 4
23 22 13 15 23 26 27 28 29 30 31 30 29 28 28 26 22 24 22 19 14 18 16 20 25 25 24 24 23 21 21 19 19 18 16 13 13 13 9 8 9 9 5 3
27 26 27 30 29 28 26 29 30 31 30 30 29 25 21 19 20 18 16 18 14 16 20 22 26 25 24 24 23 22 19 17 14 11 11 10 11 11 8 5 6 3 4 1
26 28 31 31 31 30 31 31 30 32 28 24 24 14 14 24 18 19 21 14 17 24 21 26 26 25 24 22 20 17 16 14 11 9 10 6 7 9 9 8 1 4 2 -3
Lifted_Index
2 2 3 3 4 4 4 5 5 4 3 2 2 2 2 2 1 1 1 0 0 -0 -0 -0 0 1 2 2 2 2 2 2 1 2 3 4 4 4 3 2 2 1 1 1
1 1 2 2 3 3 3 4 4 4 3 2 2 2 2 2 2 1 1 0 0 -0 -0 -0 0 1 2 2 2 2 2 2 2 2 3 3 3 3 3 3 2 2 1 2
-0 -0 1 1 2 2 2 3 3 3 3 2 2 2 2 2 2 1 1 1 0 0 -0 0 0 1 2 3 3 3 3 3 2 2 2 2 3 3 3 2 2 2 2 2
-0 -0 -0 1 1 1 1 2 2 2 2 2 2 2 2 2 2 1 1 1 1 1 1 1 1 1 2 2 3 3 3 3 2 1 1 2 2 3 3 2 2 2 3 3
-0 -0 -0 0 0 0 0 1 2 2 2 2 2 2 2 2 2 1 1 1 2 2 1 1 1 1 2 2 3 3 3 2 2 1 1 2 2 3 3 3 3 3 4 4
-0 -0 -0 -0 -0 -0 -0 0 1 1 1 1 1 1 2 2 2 1 1 1 1 2 2 2 2 2 2 2 3 3 2 2 1 1 1 1 2 3 3 3 3 4 4 4
-0 -0 -0 -0 -0 0 0 1 1 1 1 1 1 1 1 1 2 1 1 1 1 2 2 2 2 2 1 2 2 2 2 2 1 1 0 1 2 3 3 3 3 4 4 5
-0 -0 -0 -0 -0 0 1 1 1 1 1 1 1 1 1 1 1 1 1 0 1 1 2 2 2 1 1 1 2 2 3 2 1 0 1 1 3 3 3 3 3 4 4 4
0 -0 -0 -0 -0 0 1 1 1 1 1 1 1 1 1 1 1 1 0 0 0 1 1 1 1 1 1 1 2 3 3 2 1 1 1 2 3 4 4 3 3 4 4 4
0 0 0 -0 0 0 1 1 1 1 1 1 1 1 1 1 1 0 0 0 1 1 1 1 1 1 1 1 1 2 2 2 1 1 1 2 4 4 4 3 3 3 4 4
1 1 0 0 0 1 1 1 1 2 2 2 2 2 1 1 1 0 0 0 0 0 1 1 1 1 1 1 1 2 2 2 1 1 2 3 4 4 4 3 3 3 4 4
1 1 1 1 1 1 1 1 1 2 2 2 3 3 2 2 1 1 0 -0 0 0 0 1 1 1 1 1 2 2 3 3 2 3 3 4 5 4 4 3 3 4 4 5
2 2 2 1 2 2 2 2 1 1 2 3 3 3 3 3 2 1 1 0 0 1 1 1 1 2 2 2 2 3 3 4 4 4 5 5 5 4 4 3 4 4 5 6
2 2 2 2 2 2 2 2 1 1 2 3 3 3 3 3 2 2 1 1 1 1 1 1 1 2 3 3 3 4 4 5 5 5 5 5 4 4 4 4 4 5 6 6
2 2 2 2 2 2 2 2 1 2 2 3 3 3 3 3 2 2 2 2 2 2 2 2 2 3 4 4 4 4 4 5 5 4 4 4 4 4 4 4 4 5 6 7
2 2 2 2 2 1 1 1 2 2 2 3 3 3 3 3 3 3 2 3 3 3 2 3 3 4 4 4 4 4 4 4 4 4 4 4 4 4 4 4 5 6 7 7
2 2 2 2 1 2 2 2 2 2 3 2 2 2 3 3 3 3 3 3 3 3 3 4 4 4 5 5 4 4 4 4 4 4 4 4 4 4 5 5 6 6 7 7
2 2 2 1 2 2 2 2 2 2 2 2 2 2 2 3 3 3 4 4 4 4 4 4 4 5 5 5 4 4 4 4 4 4 4 4 4 5 5 6 6 6 7 7
2 2 2 2 2 3 3 2 2 2 2 2 2 2 2 3 3 4 4 4 4 5 5 5 5 5 5 5 4 4 4 4 4 4 5 5 5 6 6 6 7 7 7 7
3 3 3 2 2 2 2 2 2 3 3 3 2 2 2 3 4 4 4 5 5 5 5 6 6 6 5 5 4 4 4 5 5 5 5 5 6 6 6 6 7 7 7 7
4 4 3 3 3 2 2 2 3 3 3 3 3 3 3 4 4 4 5 5 5 5 6 5 5 5 5 5 5 5 5 5 5 5 6 6 6 6 6 7 7 7 7 7
4 4 3 3 3 3 3 3 3 3 4 4 4 4 4 5 5 5 5 5 5 5 5 5 4 4 5 5 5 5 5 5 5 5 6 6 6 6 7 7 6 6 7 7
4 4 4 4 4 4 4 4 4 4 4 4 4 4 5 5 5 5 5 5 4 4 4 4 4 4 4 5 5 5 5 5 5 5 6 6 6 7 7 7 6 7 7 8
4 4 4 4 4 5 4 4 4 4 4 4 5 5 5 5 6 6 5 4 4 4 3 3 3 4 4 4 4 4 4 5 5 5 5 6 6 6 7 7 7 7 8 8
4 4 4 4 5 5 4 4 4 4 4 5 5 5 5 5 5 5 5 4 3 3 3 3 4 4 4 4 4 4 5 5 5 5 6 6 6 7 7 7 7 8 8 9
4 4 4 4 4 4 4 4 5 5 5 5 5 5 5 5 5 5 4 3 3 3 3 3 4 4 4 4 4 5 5 5 5 5 6 6 7 7 7 7 8 9 9 10
4 4 4 4 4 4 4 5 5 5 5 5 5 5 5 5 5 4 4 3 3 3 3 3 4 4 4 4 4 5 5 6 6 6 6 7 7 7 7 7 8 9 10 11